CAPE
1152 1379 1468 1353 1246 1455 1525 1817 2085 2214 2592 2757 3076 2741 2968 2796 2687 2377 2179 2143 2110 1946 1516 1370 1152 577 91 20 0 6 17 33 8 102 71 6 44 98 126 59 27 46 34
1320 1546 1381 1360 1345 1200 1474 1638 1936 2215 2436 2771 2779 2859 2928 2776 2858 2855 2474 2151 2308 2151 1898 1367 1112 516 618 421 49 23 1 31 46 0 0 1 95 75 102 10 45 50 5
1317 1183 1162 1200 1273 1308 1394 1634 1877 2092 2249 2192 2435 2660 2781 2651 2808 2987 2909 3087 2706 2401 2250 1773 1439 1054 1011 487 174 65 38 10 38 24 0 0 1 50 20 59 28 4 0
1001 1071 1271 1501 1579 1692 1930 2259 2222 2525 2663 2715 2687 2722 2720 2656 2633 2777 2971 2901 3099 2727 2668 2210 1773 1398 1259 1118 551 149 54 45 64 52 0 0 0 8 2 8 0 0 0
1340 1349 1509 1610 1887 2135 2536 2662 2724 2840 2902 3005 2926 2871 2771 2755 2583 2725 2965 3062 3242 3166 2780 2668 2147 1649 1427 1214 675 331 121 91 86 30 16 0 16 24 42 8 1 0 0
1820 1835 2114 2398 2592 2539 1790 1257 1510 1933 2265 2519 2443 2492 2190 2075 1854 1807 1930 2876 3223 3285 3261 2804 2515 1646 1621 1142 526 279 107 154 105 60 21 11 110 132 69 26 0 0 0
1628 1507 1655 1425 1462 1357 1125 578 852 1373 1463 2214 1962 1851 1740 1676 1401 1293 1171 1703 3044 3218 3373 3236 2522 1832 1161 973 567 233 133 212 69 38 22 46 215 159 88 33 9 0 0
1189 941 874 775 814 736 495 498 719 1002 1361 1756 1993 1255 433 484 645 394 420 837 1809 2916 3267 3112 2722 1985 1143 832 549 298 237 198 98 71 20 57 243 209 134 129 71 3 0
1332 1233 1006 778 622 689 973 740 544 684 744 917 1230 1250 1001 752 283 217 171 369 994 1700 2647 2634 1534 1481 1050 769 388 186 149 188 132 87 52 66 4 0 23 0 0 0 0
237 359 447 645 916 1007 809 559 541 424 364 241 245 341 333 351 91 63 119 375 791 1241 921 832 714 681 683 576 331 220 302 127 145 82 121 39 17 1 0 0 0 0 0
215 417 472 628 707 684 651 876 586 410 361 418 341 272 216 160 170 49 21 53 409 804 1094 830 835 429 349 415 243 180 120 52 199 145 108 40 29 3 0 0 0 0 0
704 812 1195 1239 1072 1047 1296 1200 836 752 782 853 805 705 627 624 272 115 152 7 39 299 426 312 131 113 252 15 101 280 371 330 232 119 67 38 13 6 6 0 0 0 0
1056 1144 1027 1133 1405 1498 1634 1673 1330 1031 802 839 868 965 809 765 624 328 400 46 97 110 177 155 123 142 238 239 258 189 204 165 115 38 88 30 1 8 5 0 0 0 0
1333 1464 1328 1368 594 811 777 684 684 934 852 907 1027 1085 1121 903 751 443 368 414 355 212 65 62 21 124 17 12 49 83 81 67 39 60 92 7 4 39 42 9 1 0 0
1709 1436 1107 228 668 643 193 85 84 167 418 612 754 709 1220 1290 901 469 452 332 250 238 323 245 131 69 68 58 42 133 48 60 74 99 65 43 22 73 23 7 5 8 0
1407 704 629 402 434 487 174 155 87 196 231 342 419 532 627 715 687 475 398 260 159 243 374 402 307 168 185 213 161 90 92 30 73 61 28 17 32 10 16 17 2 4 44
1647 1352 840 19 266 301 397 634 842 232 202 290 411 494 615 557 493 544 444 278 281 191 303 238 196 224 284 215 175 177 114 91 62 99 45 41 39 48 11 18 11 2 0
1668 860 910 216 125 289 257 220 492 709 722 261 44 132 271 59 114 282 321 276 202 214 269 241 262 271 242 192 215 182 172 211 130 63 73 2 28 31 53 4 28 12 1
1188 1184 914 361 357 431 489 297 244 314 468 731 101 38 66 94 136 168 196 276 298 227 163 147 139 157 166 197 150 260 243 162 82 43 73 19 37 38 21 12 2 10 4
1127 470 365 724 774 705 488 513 620 565 463 322 258 67 60 122 132 127 88 146 167 143 137 151 133 90 246 200 279 185 257 131 127 44 29 34 34 39 41 13 6 7 1
549 357 374 760 960 664 614 575 550 666 734 630 322 215 17 87 236 134 123 130 98 35 61 83 58 147 124 83 134 239 63 162 63 80 77 121 82 43 34 2 4 9 13
779 849 1036 1068 746 663 345 129 101 314 888 752 191 29 13 240 422 212 202 188 101 40 28 63 73 151 129 123 85 24 12 14 21 38 20 12 18 11 3 2 1 3 15
525 760 823 736 538 14 252 425 268 0 185 258 343 564 102 448 676 519 361 280 234 106 64 86 54 82 49 51 164 138 40 23 4 3 2 0 0 4 4 3 3 9 0
11 807 787 505 384 381 354 499 598 267 437 710 489 607 326 343 577 717 596 436 285 238 197 176 78 34 67 82 64 38 16 19 15 2 19 4 1 3 11 14 0 0 0
205 908 901 744 374 349 748 472 615 770 676 696 845 1112 1167 1042 685 764 659 542 469 362 257 62 19 35 108 90 62 9 20 27 35 7 4 14 54 50 7 0 0 0 0
0 366 744 882 772 546 781 736 711 882 798 497 534 894 1205 1344 1214 1014 747 653 534 406 269 93 76 75 86 15 1 0 0 1 5 1 42 33 16 0 0 0 0 0 0
CIN
-209 -211 -201 -198 -171 -131 -105 -91 -63 -34 -31 -26 -18 -33 -27 -25 -29 -34 -32 -19 -25 -25 -53 -63 -71 -147 -157 -93 0 -161 -95 -35 -19 -80 -97 -86 -59 -46 -33 -31 -5 0 0
-226 -211 -227 -195 -192 -147 -119 -109 -91 -63 -43 -41 -30 -24 -23 -25 -23 -22 -35 -37 -31 -29 -41 -72 -81 -129 -127 -139 -149 -30 -137 -61 -12 0 0 0 -28 -28 -9 -5 -4 0 -2
-239 -198 -186 -191 -175 -141 -110 -102 -86 -76 -66 -56 -52 -46 -36 -27 -19 -18 -31 -22 -26 -30 -32 -45 -56 -91 -92 -100 -216 -35 -46 -102 -37 -15 0 0 0 -23 -2 -6 -3 -4 0
-247 -231 -187 -191 -165 -121 -112 -94 -81 -71 -53 -36 -36 -38 -37 -33 -34 -25 -12 -29 -14 -28 -21 -31 -43 -45 -61 -48 -107 -59 -77 -26 -28 -29 0 0 0 0 0 0 0 0 0
-227 -227 -213 -195 -168 -135 -126 -110 -87 -67 -52 -34 -19 -21 -18 -4 -5 -15 -14 -10 -17 -14 -26 -22 -38 -39 -25 -34 -103 -114 -111 -38 -28 -18 -4 0 -101 -83 -57 -11 0 0 0
-151 -148 -122 -101 -87 -96 -124 -94 -158 -140 -120 -77 -101 -68 -87 -81 -72 -28 -14 0 -3 -14 -16 -20 -24 -50 -31 -64 -64 -76 -135 -62 -50 -30 -18 -102 -22 -26 -70 -74 0 0 0
-141 -161 -146 -158 -128 -114 -110 -80 -226 -82 -140 -110 -141 -173 -166 -204 -212 -155 -119 -58 -2 0 -2 -11 -29 -54 -60 -51 -41 -53 -118 -37 -50 -33 -9 -41 -1 -20 -50 -95 -124 0 0
-145 -164 -149 -161 -141 -182 -200 -234 -171 -95 -114 -127 -84 -211 -376 -329 -356 -294 -134 -150 -47 -7 0 -3 -1 -18 -30 -39 -91 -66 -76 -30 -25 -14 -11 0 -4 -21 -35 -24 -56 -60 0
-89 -93 -131 -171 -210 -159 -113 -145 -165 -183 -208 -155 -122 -161 -229 -272 -341 -155 -137 -202 -115 -48 -4 -2 -45 -29 -58 -60 -35 -33 -53 -20 -12 -3 0 0 -12 0 -31 -20 0 0 0
-300 -252 -213 -159 -97 -72 -98 -150 -204 -264 -258 -278 -270 -276 -249 -182 -118 -147 -111 -226 -105 -56 -75 -78 -98 -74 -61 -42 -63 -52 -5 -23 -12 -8 0 -7 -22 -2 0 0 0 0 0
-238 -183 -177 -154 -139 -143 -135 -80 -141 -190 -229 -218 -247 -238 -248 -234 -260 -74 -48 -326 -131 -37 -20 -36 -12 -46 -30 -21 -40 -72 -76 -52 -4 -3 -4 -9 -8 -19 0 0 0 0 0
-122 -104 -65 -58 -73 -82 -58 -58 -91 -97 -82 -69 -76 -90 -81 -84 -170 -127 -82 -125 -267 -129 -56 -74 -98 -57 -13 -43 -60 -10 -1 -2 -9 -20 -15 -3 -6 -12 -20 0 0 0 0
-102 -93 -104 -93 -53 -35 -15 -1 -7 -27 -47 -36 -30 -14 -25 -32 -52 -105 -76 -183 -78 -99 -112 -90 -52 -29 -6 -7 -3 -28 -21 -21 -30 -31 0 -1 -1 -17 -12 0 0 0 0
-91 -75 -76 -59 -164 -109 -102 -112 -96 -48 -43 -21 -9 -2 -3 -18 -34 -90 -114 -93 -80 -99 -81 -94 -49 -25 -30 -31 -65 -46 -37 -24 -42 -22 -3 -2 -27 -7 -6 0 -8 0 0
-62 -72 -90 -162 -107 -101 -167 -199 -184 -96 -62 -64 -49 -40 0 0 -17 -60 -80 -100 -109 -94 -60 -54 -52 -32 -25 -28 -33 -10 -23 -27 -24 -3 -15 -1 -1 0 -5 -8 -3 -2 0
-40 -71 -83 -107 -93 -86 -145 -206 -133 -79 -89 -114 -124 -85 -54 -34 -31 -48 -63 -82 -87 -75 -34 -15 -7 -19 -2 -3 -4 -12 -12 -30 -5 -2 -1 0 0 0 0 -5 -1 0 -12
-37 -44 -67 -165 -112 -96 -91 -70 -36 -79 -105 -93 -81 -58 -64 -76 -70 -28 -55 -72 -60 -63 -49 -26 -23 -8 0 0 0 0 0 0 0 0 -4 -1 -1 0 -6 0 -1 0 0
-44 -82 -73 -114 -125 -64 -114 -118 -85 -65 -68 -148 -81 -103 -96 -86 -62 -80 -53 -86 -122 -113 -92 -53 -23 -3 0 0 -1 0 0 0 0 0 0 -6 -5 -2 0 0 -20 -29 0
-62 -45 -75 -111 -122 -76 -119 -121 -107 -112 -77 -39 -119 -42 -48 -68 -61 -97 -150 -121 -128 -131 -146 -123 -81 -40 -16 -3 -7 -1 0 0 -1 -1 0 -1 -2 -12 -18 -3 0 -2 -3
-72 -162 -107 -82 -76 -85 -95 -86 -60 -72 -72 -61 -62 -143 -51 -91 -56 -83 -195 -187 -174 -164 -138 -98 -82 -68 -10 -7 0 -1 0 0 0 0 -6 0 -1 -2 0 -4 -6 -2 -1
-100 -135 -60 -77 -62 -77 -66 -63 -45 -32 -37 -43 -70 -116 -214 -71 -142 -81 -145 -151 -179 -243 -181 -143 -137 -48 -32 -33 -7 -1 -8 -1 0 0 0 -6 0 0 -3 -4 0 0 -4
-91 -74 -56 -49 -80 -81 -110 -145 -157 -77 -28 -31 -78 -112 -103 -73 -93 -116 -78 -95 -143 -230 -236 -144 -107 -51 -45 -37 -34 -18 -9 -21 -23 -7 -3 -5 -3 -5 -2 -6 0 -11 -3
-79 -51 -47 -64 -101 -112 -114 -76 -101 0 -115 -95 -90 -72 -30 -88 -54 -61 -76 -80 -80 -134 -189 -157 -152 -111 -112 -76 -6 -2 -7 -8 -1 -10 -3 0 -3 -1 0 0 0 -2 0
-10 -42 -46 -70 -102 -94 -73 -66 -69 -102 -105 -78 -63 -54 -65 -15 -55 -56 -55 -70 -93 -97 -116 -111 -144 -159 -106 -80 -60 -70 -17 -13 -8 -1 -3 -3 0 0 -1 -3 0 0 0
-134 -23 -29 -44 -62 -60 -49 -54 -52 -43 -40 -49 -43 -45 -42 -57 -81 -70 -60 -66 -63 -70 -82 -142 -176 -140 -71 -52 -52 -22 -21 -12 -1 -11 -16 -5 -2 -6 -4 0 0 0 0
0 -66 -15 -22 -34 -44 -29 -20 -21 -22 -24 -36 -43 -44 -44 -37 -40 -46 -57 -57 -58 -67 -82 -108 -107 -87 -66 -55 -7 0 0 -10 -10 -2 0 -1 -9 0 0 0 0 0 0
Wind_Speed
12 10 11 14 11 11 11 11 11 10 12 13 11 11 14 12 10 8 6 5 6 6 8 10 12 17 nan nan nan nan nan nan nan 24 nan nan nan nan 27 nan nan nan nan
11 12 13 14 17 17 18 13 12 10 13 14 14 14 15 16 13 12 10 9 11 8 9 11 12 16 19 18 nan nan nan nan nan nan nan nan nan nan 21 nan nan nan nan
7 8 10 13 14 15 14 13 14 13 11 13 16 15 16 16 15 14 13 13 14 14 15 16 16 16 19 20 23 nan nan nan nan nan nan nan nan nan nan nan nan nan nan
6 7 7 10 11 13 18 18 17 17 15 15 17 17 16 17 16 16 15 13 16 15 18 20 21 22 19 23 26 27 nan nan nan nan nan nan nan nan nan nan nan nan nan
15 12 12 14 17 18 19 23 24 23 21 20 20 21 25 23 21 19 20 16 16 18 17 20 23 25 25 26 29 33 31 nan nan nan nan nan nan nan nan nan nan nan nan
18 18 21 22 21 29 33 32 28 25 28 28 28 26 30 33 32 28 23 22 21 18 21 22 24 28 30 33 32 23 33 39 24 nan nan nan 32 28 nan nan nan nan nan
30 29 32 31 33 28 30 35 40 25 34 35 31 31 31 36 42 38 30 24 25 24 20 24 27 32 31 35 37 33 39 40 nan nan nan nan 30 27 nan nan nan nan nan
32 32 32 32 27 32 35 33 28 29 33 33 26 25 22 30 47 46 38 33 29 27 24 23 25 28 31 37 42 37 38 39 nan nan nan nan 25 27 27 28 nan nan nan
27 27 28 30 30 32 35 36 31 33 34 31 30 29 31 34 39 22 40 36 36 29 31 27 31 31 31 35 43 41 40 38 40 nan nan nan nan nan nan nan nan nan nan
26 27 27 29 30 30 34 36 38 37 37 37 34 36 35 31 nan nan 34 26 29 31 28 26 27 34 35 38 42 41 39 41 42 nan 19 nan nan nan nan nan nan nan nan
23 25 27 28 29 32 34 37 37 35 36 37 37 33 28 31 31 nan nan nan 26 23 31 31 31 35 38 43 35 35 36 nan 42 32 23 nan nan nan nan nan nan nan nan
16 17 18 22 26 30 31 34 34 34 34 34 35 36 34 30 30 29 27 nan nan 29 33 36 36 38 40 nan 45 48 51 50 38 27 nan nan nan nan nan nan nan nan nan
13 21 22 22 22 25 26 28 29 30 28 27 28 30 31 31 30 31 26 nan nan 31 35 40 40 44 49 45 39 41 48 40 31 nan nan nan nan nan nan nan nan nan nan
14 10 10 14 16 19 22 26 27 25 26 26 24 22 29 29 27 28 29 28 28 29 nan nan nan 36 nan nan nan nan nan nan nan nan nan nan nan nan nan nan nan nan nan
13 11 13 14 11 13 17 nan nan 22 22 23 24 21 21 23 26 26 28 29 31 34 36 33 33 nan nan nan nan 24 nan nan nan nan nan nan nan nan nan nan nan nan nan
15 14 15 17 18 21 22 22 nan 15 16 22 22 20 17 16 21 25 29 30 33 32 32 33 29 31 24 18 17 nan nan nan nan nan nan nan nan nan nan nan nan nan nan
14 15 17 nan 18 18 19 16 15 21 24 25 16 17 17 16 18 19 25 29 25 28 41 21 16 17 20 20 18 19 19 nan nan nan nan nan nan nan nan nan nan nan nan
13 15 15 14 16 18 15 19 17 16 14 15 nan 17 17 nan 15 11 21 24 27 23 12 10 10 12 13 13 15 17 20 20 19 nan nan nan nan nan nan nan nan nan nan
13 14 15 14 16 15 17 18 21 20 15 17 15 nan nan nan 11 8 3 10 12 3 3 7 11 12 12 14 17 19 21 21 nan nan nan nan nan nan nan nan nan nan nan
12 13 13 14 15 16 18 18 18 19 19 16 19 nan nan 7 5 6 nan 9 8 8 8 12 15 nan 18 19 19 21 23 22 22 nan nan nan nan nan nan nan nan nan nan
9 11 13 14 15 15 16 17 17 17 16 16 15 14 nan nan 11 9 10 12 nan nan nan nan nan 20 20 nan 21 21 nan 17 nan nan nan 23 nan nan nan nan nan nan nan
11 11 12 13 15 14 14 14 14 17 14 10 16 nan nan 16 17 17 16 17 19 nan nan nan nan 17 17 18 nan nan nan nan nan nan nan nan nan nan nan nan nan nan nan
14 13 15 16 15 nan 15 14 13 nan 13 11 11 15 18 17 17 18 18 19 20 22 nan nan nan nan nan nan 22 22 nan nan nan nan nan nan nan nan nan nan nan nan nan
nan 13 14 15 15 14 15 15 14 15 13 13 15 17 18 18 19 21 21 22 22 22 23 23 nan nan nan nan nan nan nan nan nan nan nan nan nan nan nan nan nan nan nan
14 16 16 16 16 17 18 17 16 15 15 15 16 18 19 20 20 21 23 25 25 25 24 nan nan nan 25 nan nan nan nan nan nan nan nan nan nan nan nan nan nan nan nan
nan 16 17 18 18 17 18 18 18 18 18 18 18 20 20 22 23 24 25 26 26 25 24 nan nan nan nan nan nan nan nan nan nan nan nan nan nan nan nan nan nan nan nan
Wind_Direction
325 311 300 299 301 292 293 294 292 267 253 245 253 264 263 268 278 299 324 317 327 316 310 321 329 325 nan nan nan nan nan nan nan 327 nan nan nan nan 294 nan nan nan nan
330 320 314 297 295 301 301 292 279 275 272 266 257 254 250 258 268 287 295 302 305 307 308 311 322 320 330 330 nan nan nan nan nan nan nan nan nan nan 312 nan nan nan nan
326 338 325 309 305 299 293 286 277 271 259 255 251 255 257 260 266 274 283 294 301 301 300 307 317 322 323 319 317 nan nan nan nan nan nan nan nan nan nan nan nan nan nan
279 301 312 309 308 306 298 289 276 272 266 260 261 261 251 245 257 260 261 263 278 287 296 306 310 315 320 312 309 309 nan nan nan nan nan nan nan nan nan nan nan nan nan
277 276 290 297 300 298 292 284 281 282 276 268 263 266 265 254 242 251 265 268 271 282 292 299 303 310 310 301 299 306 307 nan nan nan nan nan nan nan nan nan nan nan nan
270 277 288 288 297 308 278 264 266 273 276 273 270 265 270 268 253 250 251 265 274 279 291 299 303 303 304 303 302 313 317 333 307 nan nan nan 309 306 nan nan nan nan nan
272 272 274 282 277 277 278 282 252 245 262 266 270 272 272 273 276 269 263 258 266 274 278 288 292 296 308 297 311 311 311 316 nan nan nan nan 300 310 nan nan nan nan nan
275 278 285 288 288 291 292 295 306 277 284 279 259 274 266 285 264 267 258 257 264 275 278 284 286 295 305 303 296 301 308 312 nan nan nan nan 295 313 314 305 nan nan nan
268 269 270 274 277 279 281 288 284 277 274 271 267 270 266 264 276 261 262 257 260 263 267 278 293 301 299 297 296 302 308 313 302 nan nan nan nan nan nan nan nan nan nan
262 261 263 262 268 271 272 270 274 274 275 281 275 268 267 269 nan nan 284 273 250 264 275 283 292 293 285 289 293 302 312 310 308 nan 286 nan nan nan nan nan nan nan nan
268 270 267 269 266 267 267 269 269 267 266 266 267 268 265 266 260 nan nan nan 249 259 275 282 285 293 292 291 295 291 300 nan 305 299 291 nan nan nan nan nan nan nan nan
281 278 271 269 269 269 268 268 269 270 268 263 265 265 267 262 271 274 276 nan nan 282 280 278 283 293 295 nan 292 284 289 289 290 297 nan nan nan nan nan nan nan nan nan
304 299 278 267 272 265 262 263 267 270 271 267 263 265 266 266 265 281 274 nan nan 288 286 283 284 289 288 292 289 286 287 286 297 nan nan nan nan nan nan nan nan nan nan
336 344 332 302 289 285 280 273 270 269 278 285 280 259 256 261 263 260 262 267 273 280 nan nan nan 278 nan nan nan nan nan nan nan nan nan nan nan nan nan nan nan nan nan
345 340 345 335 329 316 304 nan nan 275 278 291 287 268 250 254 256 253 251 262 266 271 275 277 277 nan nan nan nan 303 nan nan nan nan nan nan nan nan nan nan nan nan nan
359 349 344 342 345 337 338 324 nan 305 287 281 283 280 259 254 233 255 257 265 276 289 287 282 282 283 293 302 309 nan nan nan nan nan nan nan nan nan nan nan nan nan nan
4 350 354 nan 354 342 345 346 337 331 321 301 270 276 270 250 239 271 273 277 271 277 281 260 277 287 293 295 294 287 294 nan nan nan nan nan nan nan nan nan nan nan nan
1 344 358 356 344 341 347 352 346 329 334 335 nan 264 243 nan 245 287 297 287 285 266 259 291 300 297 299 306 306 304 298 296 298 nan nan nan nan nan nan nan nan nan nan
1 354 350 355 350 353 1 357 3 2 355 353 352 nan nan nan 260 279 318 269 239 178 284 306 311 308 305 304 309 308 310 311 nan nan nan nan nan nan nan nan nan nan nan
359 347 348 352 356 2 7 9 16 17 20 19 21 nan nan 316 1 350 nan 19 350 338 335 337 329 nan 318 318 315 313 305 302 300 nan nan nan nan nan nan nan nan nan nan
348 343 340 348 349 356 360 7 12 11 19 16 13 11 nan nan 15 360 357 349 nan nan nan nan nan 325 326 nan 324 325 nan 309 nan nan nan 320 nan nan nan nan nan nan nan
340 337 333 332 337 346 343 347 2 10 14 18 2 nan nan 7 0 353 347 338 327 nan nan nan nan 327 330 332 nan nan nan nan nan nan nan nan nan nan nan nan nan nan nan
338 330 326 325 329 nan 340 331 336 nan 4 359 360 360 359 358 351 343 331 324 327 330 nan nan nan nan nan nan 338 332 nan nan nan nan nan nan nan nan nan nan nan nan nan
nan 325 315 307 312 321 328 327 325 326 329 342 337 337 337 341 341 336 331 326 326 327 328 328 nan nan nan nan nan nan nan nan nan nan nan nan nan nan nan nan nan nan nan
302 310 310 308 305 306 311 314 317 319 316 312 313 324 328 329 327 326 327 326 327 324 318 nan nan nan 318 nan nan nan nan nan nan nan nan nan nan nan nan nan nan nan nan
nan 315 316 311 308 305 302 304 306 307 306 308 306 305 310 318 323 323 319 319 321 318 314 nan nan nan nan nan nan nan nan nan nan nan nan nan nan nan nan nan nan nan nan